| time (UTC) | temp C | wind direction | speed KPH | gust KPH | rain 1hr cm | rain 24hr cm | rain mn cm | humidity % | barometer mb |
| 20260510162524 | 27 | 225 | 1.6 | 4.8 | 0.00 | 0.00 | 0.00 | 48 | 1016.2 |
| 20260510162023 | 27 | 225 | 1.6 | 4.8 | 0.00 | 0.00 | 0.00 | 48 | 1016.2 |
| 20260510161522 | 27 | 191 | 3.2 | 9.7 | 0.00 | 0.00 | 0.00 | 47 | 1016.0 |
| 20260510161020 | 27 | 191 | 3.2 | 9.7 | 0.00 | 0.00 | 0.00 | 47 | 1016.0 |
| 20260510160520 | 27 | 245 | 1.6 | 8.0 | 0.00 | 0.00 | 0.00 | 47 | 1016.2 |
| 20260510160019 | 27 | 245 | 1.6 | 8.0 | 0.00 | 0.00 | 0.00 | 47 | 1016.2 |
| 20260510155538 | 26 | 311 | 1.6 | 6.4 | 0.00 | 0.00 | 0.00 | 47 | 1016.2 |
| 20260510155018 | 26 | 311 | 1.6 | 6.4 | 0.00 | 0.00 | 0.00 | 47 | 1016.2 |
| 20260510154516 | 26 | 222 | 3.2 | 11.3 | 0.00 | 0.00 | 0.00 | 49 | 1016.4 |
| 20260510154034 | 26 | 222 | 3.2 | 11.3 | 0.00 | 0.00 | 0.00 | 49 | 1016.4 |
| 20260510153514 | 26 | 319 | 1.6 | 6.4 | 0.00 | 0.00 | 0.00 | 50 | 1016.3 |
| 20260510153013 | 25 | 243 | 1.6 | 6.4 | 0.00 | 0.00 | 0.00 | 50 | 1016.3 |
| 20260510152512 | 25 | 243 | 1.6 | 6.4 | 0.00 | 0.00 | 0.00 | 50 | 1016.3 |
| 20260510152011 | 25 | 270 | 1.6 | 6.4 | 0.00 | 0.00 | 0.00 | 52 | 1016.3 |
| 20260510151510 | 25 | 270 | 1.6 | 6.4 | 0.00 | 0.00 | 0.00 | 52 | 1016.3 |
| 20260510151008 | 24 | 303 | 3.2 | 6.4 | 0.00 | 0.00 | 0.00 | 52 | 1016.3 |
| 20260510150508 | 24 | 303 | 3.2 | 6.4 | 0.00 | 0.00 | 0.00 | 52 | 1016.3 |
| 20260510150007 | 24 | 344 | 1.6 | 6.4 | 0.00 | 0.00 | 0.00 | 54 | 1016.2 |
| 20260510145526 | 24 | 344 | 1.6 | 6.4 | 0.00 | 0.00 | 0.00 | 54 | 1016.2 |
| 20260510145006 | 23 | 357 | 1.6 | 3.2 | 0.00 | 0.00 | 0.00 | 55 | 1016.3 |
| 20260510144504 | 23 | 357 | 1.6 | 3.2 | 0.00 | 0.00 | 0.00 | 55 | 1016.3 |
| 20260510144003 | 23 | 270 | 1.6 | 4.8 | 0.00 | 0.00 | 0.00 | 55 | 1016.3 |
| 20260510143502 | 23 | 270 | 1.6 | 4.8 | 0.00 | 0.00 | 0.00 | 55 | 1016.3 |
| 20260510143000 | 22 | 270 | 1.6 | 6.4 | 0.00 | 0.00 | 0.00 | 56 | 1016.3 |
| 20260510142520 | 22 | 270 | 1.6 | 6.4 | 0.00 | 0.00 | 0.00 | 56 | 1016.3 |
| 20260510141959 | 22 | 270 | 1.6 | 1.6 | 0.00 | 0.00 | 0.00 | 58 | 1016.2 |
| 20260510141459 | 22 | 270 | 1.6 | 1.6 | 0.00 | 0.00 | 0.00 | 58 | 1016.2 |
| 20260510141019 | 22 | 45 | 1.6 | 6.4 | 0.00 | 0.00 | 0.00 | 60 | 1016.4 |
| 20260510140456 | 22 | 45 | 1.6 | 6.4 | 0.00 | 0.00 | 0.00 | 60 | 1016.4 |
| 20260510140017 | 21 | 153 | 1.6 | 6.4 | 0.00 | 0.00 | 0.00 | 61 | 1016.3 |
| 20260510135456 | 21 | 153 | 1.6 | 6.4 | 0.00 | 0.00 | 0.00 | 61 | 1016.3 |
| 20260510134953 | 21 | 229 | 1.6 | 3.2 | 0.00 | 0.00 | 0.00 | 62 | 1016.3 |
| 20260510134453 | 21 | 229 | 1.6 | 3.2 | 0.00 | 0.00 | 0.00 | 62 | 1016.3 |
| 20260510133950 | 21 | 229 | 1.6 | 3.2 | 0.00 | 0.00 | 0.00 | 62 | 1016.3 |
| 20260510133450 | 20 | 39 | 3.2 | 8.0 | 0.00 | 0.00 | 0.00 | 62 | 1016.3 |
| 20260510132950 | 20 | 39 | 3.2 | 8.0 | 0.00 | 0.00 | 0.00 | 62 | 1016.3 |
| 20260510132448 | 20 | 38 | 1.6 | 6.4 | 0.00 | 0.00 | 0.00 | 65 | 1016.3 |
| 20260510132008 | 20 | 38 | 1.6 | 6.4 | 0.00 | 0.00 | 0.00 | 65 | 1016.3 |
| 20260510131446 | 19 | 341 | 1.6 | 3.2 | 0.00 | 0.00 | 0.00 | 68 | 1016.2 |
| 20260510130945 | 19 | 341 | 1.6 | 3.2 | 0.00 | 0.00 | 0.00 | 68 | 1016.2 |
| 20260510130444 | 18 | 22 | 1.6 | 6.4 | 0.00 | 0.00 | 0.00 | 69 | 1016.0 |
| 20260510125944 | 18 | 22 | 1.6 | 6.4 | 0.00 | 0.00 | 0.00 | 69 | 1016.0 |
| 20260510125442 | 17 | 45 | 1.6 | 6.4 | 0.00 | 0.00 | 0.00 | 71 | 1016.0 |
| 20260510124943 | 17 | 45 | 1.6 | 6.4 | 0.00 | 0.00 | 0.00 | 71 | 1016.0 |
| 20260510124440 | 17 | 41 | 3.2 | 6.4 | 0.00 | 0.00 | 0.00 | 71 | 1015.9 |
| 20260510123941 | 17 | 41 | 3.2 | 6.4 | 0.00 | 0.00 | 0.00 | 71 | 1015.9 |
| 20260510123438 | 16 | 45 | 1.6 | 3.2 | 0.00 | 0.00 | 0.00 | 76 | 1015.8 |
| 20260510122937 | 16 | 45 | 1.6 | 3.2 | 0.00 | 0.00 | 0.00 | 76 | 1015.8 |
| 20260510122436 | 15 | 41 | 1.6 | 3.2 | 0.00 | 0.00 | 0.00 | 78 | 1015.7 |
| 20260510121937 | 15 | 41 | 1.6 | 3.2 | 0.00 | 0.00 | 0.00 | 78 | 1015.7 |
| 20260510121435 | 13 | 3 | 1.6 | 4.8 | 0.00 | 0.00 | 0.00 | 80 | 1015.7 |
| 20260510120934 | 13 | 3 | 1.6 | 4.8 | 0.00 | 0.00 | 0.00 | 80 | 1015.7 |
| 20260510120433 | 12 | 338 | 1.6 | 1.6 | 0.00 | 0.00 | 0.00 | 82 | 1015.7 |
| 20260510115951 | 12 | 338 | 1.6 | 1.6 | 0.00 | 0.00 | 0.00 | 82 | 1015.7 |
| 20260510115431 | 12 | 12 | 1.6 | 1.6 | 0.00 | 0.00 | 0.00 | 85 | 1015.5 |
| 20260510114929 | 12 | 12 | 1.6 | 1.6 | 0.00 | 0.00 | 0.00 | 85 | 1015.5 |
| 20260510114429 | 10 | 25 | 1.6 | 1.6 | 0.00 | 0.00 | 0.00 | 87 | 1015.4 |
| 20260510113927 | 10 | 25 | 1.6 | 1.6 | 0.00 | 0.00 | 0.00 | 87 | 1015.4 |
| 20260510113428 | 9 | 90 | 1.6 | 1.6 | 0.00 | 0.00 | 0.00 | 86 | 1015.3 |
| 20260510112925 | 9 | 90 | 1.6 | 1.6 | 0.00 | 0.00 | 0.00 | 86 | 1015.3 |
| 20260510112426 | 8 | 348 | 1.6 | 1.6 | 0.00 | 0.00 | 0.00 | 86 | 1015.2 |
| 20260510111922 | 8 | 348 | 1.6 | 1.6 | 0.00 | 0.00 | 0.00 | 86 | 1015.2 |
| 20260510111422 | 8 | 0.0 | 1.6 | 0.00 | 0.00 | 0.00 | 85 | 1015.0 | |
| 20260510110941 | 8 | 0.0 | 1.6 | 0.00 | 0.00 | 0.00 | 85 | 1015.0 | |
| 20260510110420 | 8 | 32 | 1.6 | 4.8 | 0.00 | 0.00 | 0.00 | 85 | 1014.7 |
| 20260510105919 | 8 | 32 | 1.6 | 4.8 | 0.00 | 0.00 | 0.00 | 85 | 1014.7 |
| 20260510105422 | 8 | 142 | 1.6 | 1.6 | 0.00 | 0.00 | 0.00 | 84 | 1014.7 |
| 20260510104917 | 8 | 142 | 1.6 | 1.6 | 0.00 | 0.00 | 0.00 | 84 | 1014.7 |
| 20260510104436 | 8 | 270 | 1.6 | 1.6 | 0.00 | 0.00 | 0.00 | 84 | 1014.6 |
| 20260510103915 | 8 | 270 | 1.6 | 1.6 | 0.00 | 0.00 | 0.00 | 84 | 1014.6 |
| 20260510103434 | 8 | 45 | 1.6 | 1.6 | 0.00 | 0.00 | 0.00 | 84 | 1014.4 |
| 20260510102913 | 8 | 45 | 1.6 | 1.6 | 0.00 | 0.00 | 0.00 | 84 | 1014.4 |
| 20260510102413 | 8 | 135 | 1.6 | 1.6 | 0.00 | 0.00 | 0.00 | 84 | 1014.3 |
| 20260510101910 | 8 | 135 | 1.6 | 1.6 | 0.00 | 0.00 | 0.00 | 84 | 1014.3 |
| 20260510101412 | 8 | 40 | 1.6 | 4.8 | 0.00 | 0.00 | 0.00 | 84 | 1014.2 |
| 20260510100911 | 8 | 40 | 1.6 | 4.8 | 0.00 | 0.00 | 0.00 | 84 | 1014.2 |
| 20260510100429 | 9 | 37 | 1.6 | 3.2 | 0.00 | 0.00 | 0.00 | 83 | 1014.1 |
| 20260510095908 | 9 | 37 | 1.6 | 3.2 | 0.00 | 0.00 | 0.00 | 83 | 1014.1 |
| 20260510095406 | 9 | 90 | 1.6 | 1.6 | 0.00 | 0.00 | 0.00 | 83 | 1014.2 |
| 20260510094927 | 9 | 90 | 1.6 | 1.6 | 0.00 | 0.00 | 0.00 | 83 | 1014.2 |
| 20260510094424 | 9 | 153 | 1.6 | 3.2 | 0.00 | 0.00 | 0.00 | 83 | 1014.0 |
| 20260510093905 | 9 | 153 | 1.6 | 3.2 | 0.00 | 0.00 | 0.00 | 83 | 1014.0 |
| 20260510093402 | 9 | 20 | 1.6 | 3.2 | 0.00 | 0.00 | 0.00 | 84 | 1013.9 |
| 20260510092901 | 9 | 20 | 1.6 | 3.2 | 0.00 | 0.00 | 0.00 | 84 | 1013.9 |
| 20260510092401 | 9 | 38 | 1.6 | 1.6 | 0.00 | 0.00 | 0.00 | 83 | 1013.8 |
| 20260510091859 | 9 | 38 | 1.6 | 1.6 | 0.00 | 0.00 | 0.00 | 83 | 1013.8 |
| 20260510091358 | 9 | 90 | 1.6 | 1.6 | 0.00 | 0.00 | 0.00 | 82 | 1013.7 |
| 20260510090857 | 9 | 90 | 1.6 | 1.6 | 0.00 | 0.00 | 0.00 | 82 | 1013.7 |
| 20260510090356 | 10 | 32 | 1.6 | 4.8 | 0.00 | 0.00 | 0.00 | 82 | 1013.6 |
| 20260510085857 | 10 | 32 | 1.6 | 4.8 | 0.00 | 0.00 | 0.00 | 82 | 1013.6 |
| 20260510085356 | 10 | 11 | 1.6 | 3.2 | 0.00 | 0.00 | 0.00 | 82 | 1013.6 |
| 20260510084912 | 10 | 11 | 1.6 | 3.2 | 0.00 | 0.00 | 0.00 | 82 | 1013.6 |
| 20260510084352 | 10 | 225 | 1.6 | 3.2 | 0.00 | 0.00 | 0.00 | 82 | 1013.6 |
| 20260510083851 | 10 | 225 | 1.6 | 3.2 | 0.00 | 0.00 | 0.00 | 82 | 1013.6 |
| 20260510083352 | 10 | 51 | 1.6 | 6.4 | 0.00 | 0.00 | 0.00 | 81 | 1013.7 |
| 20260510082849 | 10 | 51 | 1.6 | 6.4 | 0.00 | 0.00 | 0.00 | 81 | 1013.7 |
| 20260510082348 | 10 | 23 | 1.6 | 3.2 | 0.00 | 0.00 | 0.00 | 81 | 1013.6 |
| 20260510081849 | 10 | 23 | 1.6 | 3.2 | 0.00 | 0.00 | 0.00 | 81 | 1013.6 |
| 20260510081346 | 10 | 14 | 1.6 | 3.2 | 0.00 | 0.00 | 0.00 | 82 | 1013.3 |
| 20260510080846 | 10 | 14 | 1.6 | 3.2 | 0.00 | 0.00 | 0.00 | 82 | 1013.3 |
| 20260510080345 | 10 | 37 | 1.6 | 4.8 | 0.00 | 0.00 | 0.00 | 82 | 1013.1 |
| 20260510075904 | 10 | 37 | 1.6 | 4.8 | 0.00 | 0.00 | 0.00 | 82 | 1013.1 |
| 20260510075342 | 10 | 45 | 1.6 | 3.2 | 0.00 | 0.00 | 0.00 | 81 | 1012.9 |
| 20260510074841 | 10 | 45 | 1.6 | 3.2 | 0.00 | 0.00 | 0.00 | 81 | 1012.9 |
| 20260510074340 | 10 | 90 | 1.6 | 3.2 | 0.00 | 0.00 | 0.00 | 81 | 1013.0 |
| 20260510073839 | 10 | 90 | 1.6 | 3.2 | 0.00 | 0.00 | 0.00 | 81 | 1013.0 |
| 20260510073337 | 10 | 45 | 1.6 | 3.2 | 0.00 | 0.00 | 0.00 | 81 | 1013.0 |
| 20260510072837 | 10 | 45 | 1.6 | 3.2 | 0.00 | 0.00 | 0.00 | 81 | 1013.0 |
| 20260510072337 | 11 | 11 | 1.6 | 1.6 | 0.00 | 0.00 | 0.00 | 80 | 1013.0 |
| 20260510071855 | 11 | 11 | 1.6 | 1.6 | 0.00 | 0.00 | 0.00 | 80 | 1013.0 |
| 20260510071335 | 11 | 56 | 1.6 | 1.6 | 0.00 | 0.00 | 0.00 | 79 | 1012.9 |
| 20260510070855 | 11 | 56 | 1.6 | 1.6 | 0.00 | 0.00 | 0.00 | 79 | 1012.9 |
| 20260510070332 | 11 | 149 | 1.6 | 1.6 | 0.00 | 0.00 | 0.00 | 79 | 1012.9 |
| 20260510065851 | 11 | 149 | 1.6 | 1.6 | 0.00 | 0.00 | 0.00 | 79 | 1012.9 |
| 20260510065330 | 11 | 175 | 1.6 | 1.6 | 0.00 | 0.00 | 0.00 | 79 | 1013.0 |
| 20260510064849 | 11 | 175 | 1.6 | 1.6 | 0.00 | 0.00 | 0.00 | 79 | 1013.0 |
| 20260510064328 | 11 | 90 | 1.6 | 1.6 | 0.00 | 0.00 | 0.00 | 79 | 1013.0 |
| 20260510063829 | 11 | 90 | 1.6 | 1.6 | 0.00 | 0.00 | 0.00 | 79 | 1013.0 |
| 20260510063346 | 11 | 153 | 1.6 | 1.6 | 0.00 | 0.00 | 0.00 | 80 | 1013.1 |
| 20260510062847 | 11 | 153 | 1.6 | 1.6 | 0.00 | 0.00 | 0.00 | 80 | 1013.1 |
| 20260510062325 | 11 | 135 | 1.6 | 1.6 | 0.00 | 0.00 | 0.00 | 79 | 1013.2 |
| 20260510061825 | 11 | 135 | 1.6 | 1.6 | 0.00 | 0.00 | 0.00 | 79 | 1013.2 |
| 20260510061322 | 11 | 359 | 1.6 | 1.6 | 0.00 | 0.00 | 0.00 | 80 | 1013.2 |
| 20260510060821 | 11 | 359 | 1.6 | 1.6 | 0.00 | 0.00 | 0.00 | 80 | 1013.2 |
| 20260510060320 | 11 | 49 | 1.6 | 3.2 | 0.00 | 0.00 | 0.00 | 80 | 1013.3 |
| 20260510055819 | 11 | 49 | 1.6 | 3.2 | 0.00 | 0.00 | 0.00 | 80 | 1013.3 |
| 20260510055338 | 11 | 90 | 1.6 | 3.2 | 0.00 | 0.00 | 0.00 | 79 | 1013.3 |
| 20260510054819 | 11 | 90 | 1.6 | 3.2 | 0.00 | 0.00 | 0.00 | 79 | 1013.3 |
| 20260510054316 | 11 | 90 | 1.6 | 1.6 | 0.00 | 0.00 | 0.00 | 79 | 1013.2 |
| 20260510053816 | 11 | 90 | 1.6 | 1.6 | 0.00 | 0.00 | 0.00 | 79 | 1013.2 |
| 20260510053414 | 11 | 359 | 1.6 | 1.6 | 0.00 | 0.00 | 0.00 | 79 | 1013.2 |
| 20260510052814 | 11 | 359 | 1.6 | 1.6 | 0.00 | 0.00 | 0.00 | 79 | 1013.2 |
| 20260510052332 | 11 | 45 | 1.6 | 1.6 | 0.00 | 0.00 | 0.00 | 78 | 1013.3 |
| 20260510051855 | 11 | 45 | 1.6 | 1.6 | 0.00 | 0.00 | 0.00 | 78 | 1013.3 |
| 20260510051311 | 11 | 0.0 | 1.6 | 0.00 | 0.00 | 0.00 | 78 | 1013.3 | |
| 20260510050830 | 11 | 0.0 | 1.6 | 0.00 | 0.00 | 0.00 | 78 | 1013.3 | |
| 20260510050310 | 11 | 135 | 1.6 | 1.6 | 0.00 | 0.00 | 0.00 | 77 | 1013.3 |
| 20260510045807 | 11 | 135 | 1.6 | 1.6 | 0.00 | 0.00 | 0.00 | 77 | 1013.3 |
| 20260510045307 | 12 | 195 | 1.6 | 1.6 | 0.00 | 0.00 | 0.00 | 77 | 1013.2 |
| 20260510044805 | 12 | 195 | 1.6 | 1.6 | 0.00 | 0.00 | 0.00 | 77 | 1013.2 |
| 20260510044305 | 12 | 45 | 1.6 | 1.6 | 0.00 | 0.00 | 0.00 | 76 | 1013.2 |
| 20260510043804 | 12 | 45 | 1.6 | 1.6 | 0.00 | 0.00 | 0.00 | 76 | 1013.2 |
| 20260510043324 | 12 | 185 | 1.6 | 1.6 | 0.00 | 0.00 | 0.00 | 75 | 1013.3 |
| 20260510042823 | 12 | 185 | 1.6 | 1.6 | 0.00 | 0.00 | 0.00 | 75 | 1013.3 |
| 20260510042300 | 12 | 15 | 1.6 | 1.6 | 0.00 | 0.00 | 0.00 | 75 | 1013.1 |
| 20260510041802 | 12 | 15 | 1.6 | 1.6 | 0.00 | 0.00 | 0.00 | 75 | 1013.1 |
| 20260510041257 | 12 | 186 | 1.6 | 1.6 | 0.00 | 0.00 | 0.00 | 74 | 1013.2 |
| 20260510040800 | 12 | 186 | 1.6 | 1.6 | 0.00 | 0.00 | 0.00 | 74 | 1013.2 |
| 20260510040257 | 12 | 41 | 1.6 | 3.2 | 0.00 | 0.00 | 0.00 | 73 | 1013.2 |
| 20260510035756 | 12 | 41 | 1.6 | 3.2 | 0.00 | 0.00 | 0.00 | 73 | 1013.2 |
| 20260510035255 | 13 | 45 | 1.6 | 1.6 | 0.00 | 0.00 | 0.00 | 71 | 1013.1 |
| 20260510034753 | 13 | 45 | 1.6 | 1.6 | 0.00 | 0.00 | 0.00 | 71 | 1013.1 |
| 20260510034252 | 13 | 213 | 1.6 | 1.6 | 0.00 | 0.00 | 0.00 | 70 | 1013.0 |
| 20260510033752 | 13 | 213 | 1.6 | 1.6 | 0.00 | 0.00 | 0.00 | 70 | 1013.0 |
| 20260510033252 | 13 | 45 | 1.6 | 1.6 | 0.00 | 0.00 | 0.00 | 69 | 1012.8 |
| 20260510032808 | 13 | 45 | 1.6 | 1.6 | 0.00 | 0.00 | 0.00 | 69 | 1012.8 |
| 20260510032250 | 14 | 45 | 1.6 | 1.6 | 0.00 | 0.00 | 0.00 | 69 | 1012.9 |
| 20260510031749 | 14 | 45 | 1.6 | 1.6 | 0.00 | 0.00 | 0.00 | 69 | 1012.9 |
| 20260510031246 | 14 | 26 | 1.6 | 1.6 | 0.00 | 0.00 | 0.00 | 68 | 1012.8 |
| 20260510030745 | 14 | 26 | 1.6 | 1.6 | 0.00 | 0.00 | 0.00 | 68 | 1012.8 |
| 20260510030244 | 15 | 90 | 1.6 | 1.6 | 0.00 | 0.00 | 0.00 | 67 | 1012.8 |
| 20260510025745 | 15 | 90 | 1.6 | 1.6 | 0.00 | 0.00 | 0.00 | 67 | 1012.8 |
| 20260510025243 | 15 | 54 | 1.6 | 1.6 | 0.00 | 0.00 | 0.00 | 66 | 1012.6 |
| 20260510024742 | 15 | 54 | 1.6 | 1.6 | 0.00 | 0.00 | 0.00 | 66 | 1012.6 |
| 20260510024240 | 15 | 45 | 1.6 | 1.6 | 0.00 | 0.00 | 0.00 | 65 | 1012.6 |
| 20260510023739 | 15 | 45 | 1.6 | 1.6 | 0.00 | 0.00 | 0.00 | 65 | 1012.6 |
| 20260510023300 | 15 | 54 | 1.6 | 1.6 | 0.00 | 0.00 | 0.00 | 65 | 1012.5 |
| 20260510022757 | 15 | 54 | 1.6 | 1.6 | 0.00 | 0.00 | 0.00 | 65 | 1012.5 |
| 20260510022237 | 15 | 90 | 1.6 | 1.6 | 0.00 | 0.00 | 0.00 | 64 | 1012.4 |
| 20260510021735 | 15 | 90 | 1.6 | 1.6 | 0.00 | 0.00 | 0.00 | 64 | 1012.4 |
| 20260510021254 | 16 | 182 | 1.6 | 3.2 | 0.00 | 0.00 | 0.00 | 63 | 1012.2 |
| 20260510020733 | 16 | 182 | 1.6 | 3.2 | 0.00 | 0.00 | 0.00 | 63 | 1012.2 |
| 20260510020232 | 16 | 14 | 1.6 | 1.6 | 0.00 | 0.00 | 0.00 | 61 | 1012.0 |
| 20260510015752 | 16 | 14 | 1.6 | 1.6 | 0.00 | 0.00 | 0.00 | 61 | 1012.0 |
| 20260510015230 | 16 | 355 | 1.6 | 1.6 | 0.00 | 0.00 | 0.00 | 61 | 1011.9 |
| 20260510014731 | 16 | 355 | 1.6 | 1.6 | 0.00 | 0.00 | 0.00 | 61 | 1011.9 |
| 20260510014228 | 17 | 36 | 1.6 | 1.6 | 0.00 | 0.00 | 0.00 | 60 | 1011.6 |
| 20260510013727 | 17 | 36 | 1.6 | 1.6 | 0.00 | 0.00 | 0.00 | 60 | 1011.6 |
| 20260510013226 | 17 | 50 | 1.6 | 1.6 | 0.00 | 0.00 | 0.00 | 59 | 1011.5 |
| 20260510012725 | 17 | 50 | 1.6 | 1.6 | 0.00 | 0.00 | 0.00 | 59 | 1011.5 |
| 20260510012224 | 17 | 90 | 1.6 | 1.6 | 0.00 | 0.00 | 0.00 | 58 | 1011.4 |
| 20260510011726 | 17 | 90 | 1.6 | 1.6 | 0.00 | 0.00 | 0.00 | 58 | 1011.4 |
| 20260510011222 | 18 | 90 | 1.6 | 1.6 | 0.00 | 0.00 | 0.00 | 57 | 1011.3 |
| 20260510010721 | 18 | 90 | 1.6 | 1.6 | 0.00 | 0.00 | 0.00 | 57 | 1011.3 |
| 20260510010222 | 18 | 49 | 1.6 | 3.2 | 0.00 | 0.00 | 0.00 | 56 | 1011.2 |
| 20260510005741 | 18 | 49 | 1.6 | 3.2 | 0.00 | 0.00 | 0.00 | 56 | 1011.2 |
| 20260510005217 | 18 | 90 | 1.6 | 1.6 | 0.00 | 0.00 | 0.00 | 54 | 1011.1 |
| 20260510004717 | 18 | 90 | 1.6 | 1.6 | 0.00 | 0.00 | 0.00 | 54 | 1011.1 |
| 20260510004215 | 19 | 56 | 1.6 | 1.6 | 0.00 | 0.00 | 0.00 | 53 | 1011.1 |
| 20260510003716 | 19 | 56 | 1.6 | 1.6 | 0.00 | 0.00 | 0.00 | 53 | 1011.1 |
| 20260510003214 | 20 | 56 | 1.6 | 1.6 | 0.00 | 0.00 | 0.00 | 52 | 1011.1 |
| 20260510002713 | 20 | 56 | 1.6 | 1.6 | 0.00 | 0.00 | 0.00 | 52 | 1011.1 |
| 20260510002212 | 20 | 56 | 1.6 | 1.6 | 0.00 | 0.00 | 0.00 | 52 | 1011.1 |
| 20260510001712 | 20 | 45 | 1.6 | 1.6 | 0.00 | 0.00 | 0.00 | 51 | 1010.8 |
| 20260510001210 | 20 | 45 | 1.6 | 1.6 | 0.00 | 0.00 | 0.00 | 51 | 1010.8 |
| 20260510000731 | 21 | 90 | 1.6 | 3.2 | 0.00 | 0.00 | 0.00 | 50 | 1010.6 |
| 20260510000207 | 21 | 90 | 1.6 | 3.2 | 0.00 | 0.00 | 0.00 | 50 | 1010.6 |
| 20260509235706 | 21 | 21 | 1.6 | 3.2 | 0.00 | 0.00 | 0.00 | 49 | 1010.4 |
| 20260509235207 | 21 | 21 | 1.6 | 3.2 | 0.00 | 0.00 | 0.00 | 49 | 1010.4 |
| 20260509234705 | 21 | 36 | 1.6 | 1.6 | 0.00 | 0.00 | 0.00 | 49 | 1010.3 |
| 20260509234204 | 21 | 36 | 1.6 | 1.6 | 0.00 | 0.00 | 0.00 | 49 | 1010.3 |
| 20260509233703 | 22 | 303 | 1.6 | 4.8 | 0.00 | 0.00 | 0.00 | 48 | 1010.2 |
| 20260509233202 | 22 | 303 | 1.6 | 4.8 | 0.00 | 0.00 | 0.00 | 48 | 1010.2 |
| 20260509232701 | 22 | 302 | 1.6 | 4.8 | 0.00 | 0.00 | 0.00 | 47 | 1010.2 |
| 20260509232202 | 22 | 302 | 1.6 | 4.8 | 0.00 | 0.00 | 0.00 | 47 | 1010.2 |
| 20260509231659 | 22 | 295 | 1.6 | 6.4 | 0.00 | 0.00 | 0.00 | 46 | 1010.1 |
| 20260509231158 | 22 | 295 | 1.6 | 6.4 | 0.00 | 0.00 | 0.00 | 46 | 1010.1 |
| 20260509230657 | 23 | 308 | 1.6 | 3.2 | 0.00 | 0.00 | 0.00 | 45 | 1009.9 |
| 20260509230216 | 23 | 308 | 1.6 | 3.2 | 0.00 | 0.00 | 0.00 | 45 | 1009.9 |
| 20260509225655 | 23 | 344 | 1.6 | 6.4 | 0.00 | 0.00 | 0.00 | 47 | 1010.0 |
| 20260509225214 | 23 | 344 | 1.6 | 6.4 | 0.00 | 0.00 | 0.00 | 47 | 1010.0 |
| 20260509224652 | 22 | 333 | 1.6 | 4.8 | 0.00 | 0.00 | 0.00 | 48 | 1010.0 |
| 20260509224151 | 22 | 333 | 1.6 | 4.8 | 0.00 | 0.00 | 0.00 | 48 | 1010.0 |
| 20260509223651 | 23 | 270 | 1.6 | 3.2 | 0.00 | 0.00 | 0.00 | 48 | 1010.0 |
| 20260509223211 | 23 | 270 | 1.6 | 3.2 | 0.00 | 0.00 | 0.00 | 48 | 1010.0 |
| 20260509222649 | 23 | 344 | 1.6 | 1.6 | 0.00 | 0.00 | 0.00 | 49 | 1010.0 |
| 20260509222148 | 23 | 344 | 1.6 | 1.6 | 0.00 | 0.00 | 0.00 | 49 | 1010.0 |
| 20260509221647 | 23 | 15 | 1.6 | 3.2 | 0.00 | 0.00 | 0.00 | 48 | 1009.9 |
| 20260509221227 | 23 | 15 | 1.6 | 3.2 | 0.00 | 0.00 | 0.00 | 48 | 1009.9 |
| 20260509220646 | 23 | 315 | 1.6 | 6.4 | 0.00 | 0.00 | 0.00 | 48 | 1009.9 |
| 20260509220145 | 23 | 315 | 1.6 | 6.4 | 0.00 | 0.00 | 0.00 | 48 | 1009.9 |
| 20260509215644 | 23 | 0 | 1.6 | 3.2 | 0.00 | 0.00 | 0.00 | 48 | 1009.8 |
| 20260509215142 | 23 | 0 | 1.6 | 3.2 | 0.00 | 0.00 | 0.00 | 48 | 1009.8 |
| 20260509214701 | 23 | 214 | 1.6 | 6.4 | 0.00 | 0.00 | 0.00 | 47 | 1009.8 |
| 20260509214142 | 23 | 214 | 1.6 | 6.4 | 0.00 | 0.00 | 0.00 | 47 | 1009.8 |
| 20260509213639 | 23 | 315 | 1.6 | 3.2 | 0.00 | 0.00 | 0.00 | 46 | 1009.6 |
| 20260509213139 | 23 | 315 | 1.6 | 3.2 | 0.00 | 0.00 | 0.00 | 46 | 1009.6 |
| 20260509212636 | 23 | 348 | 1.6 | 4.8 | 0.00 | 0.00 | 0.00 | 46 | 1009.5 |
| 20260509212135 | 23 | 348 | 1.6 | 4.8 | 0.00 | 0.00 | 0.00 | 46 | 1009.5 |
| 20260509211634 | 24 | 270 | 1.6 | 6.4 | 0.00 | 0.00 | 0.00 | 45 | 1009.4 |
| 20260509211133 | 24 | 270 | 1.6 | 6.4 | 0.00 | 0.00 | 0.00 | 45 | 1009.4 |
| 20260509210632 | 24 | 270 | 1.6 | 6.4 | 0.00 | 0.00 | 0.00 | 45 | 1009.5 |
| 20260509210131 | 24 | 270 | 1.6 | 6.4 | 0.00 | 0.00 | 0.00 | 45 | 1009.5 |
| 20260509205630 | 25 | 169 | 1.6 | 4.8 | 0.00 | 0.00 | 0.00 | 43 | 1009.3 |
| 20260509205130 | 25 | 169 | 1.6 | 4.8 | 0.00 | 0.00 | 0.00 | 43 | 1009.3 |
| 20260509204629 | 26 | 184 | 3.2 | 11.3 | 0.00 | 0.00 | 0.00 | 43 | 1009.3 |
| 20260509204126 | 26 | 184 | 3.2 | 11.3 | 0.00 | 0.00 | 0.00 | 43 | 1009.3 |
| 20260509203626 | 26 | 270 | 1.6 | 11.3 | 0.00 | 0.00 | 0.00 | 43 | 1009.4 |
| 20260509203126 | 26 | 270 | 1.6 | 11.3 | 0.00 | 0.00 | 0.00 | 43 | 1009.4 |
| 20260509202644 | 26 | 326 | 1.6 | 6.4 | 0.00 | 0.00 | 0.00 | 42 | 1009.3 |
| 20260509202123 | 26 | 326 | 1.6 | 6.4 | 0.00 | 0.00 | 0.00 | 42 | 1009.3 |
| 20260509201703 | 26 | 187 | 1.6 | 8.0 | 0.00 | 0.00 | 0.00 | 44 | 1009.3 |
| 20260509201123 | 26 | 187 | 1.6 | 8.0 | 0.00 | 0.00 | 0.00 | 44 | 1009.3 |
| 20260509200620 | 25 | 251 | 1.6 | 6.4 | 0.00 | 0.00 | 0.00 | 46 | 1009.3 |
| 20260509200119 | 25 | 251 | 1.6 | 6.4 | 0.00 | 0.00 | 0.00 | 46 | 1009.3 |
| 20260509195618 | 25 | 315 | 1.6 | 4.8 | 0.00 | 0.00 | 0.00 | 46 | 1009.4 |
| 20260509195117 | 25 | 315 | 1.6 | 4.8 | 0.00 | 0.00 | 0.00 | 46 | 1009.4 |
| 20260509194616 | 25 | 239 | 1.6 | 4.8 | 0.00 | 0.00 | 0.00 | 47 | 1009.2 |
| 20260509194117 | 25 | 239 | 1.6 | 4.8 | 0.00 | 0.00 | 0.00 | 47 | 1009.2 |
| 20260509193616 | 25 | 182 | 1.6 | 8.0 | 0.00 | 0.00 | 0.00 | 47 | 1009.3 |
| 20260509193113 | 25 | 182 | 1.6 | 8.0 | 0.00 | 0.00 | 0.00 | 47 | 1009.3 |
| 20260509192634 | 25 | 215 | 1.6 | 6.4 | 0.00 | 0.00 | 0.00 | 45 | 1009.4 |
| 20260509192112 | 25 | 215 | 1.6 | 6.4 | 0.00 | 0.00 | 0.00 | 45 | 1009.4 |
| 20260509191610 | 26 | 270 | 1.6 | 6.4 | 0.00 | 0.00 | 0.00 | 47 | 1009.4 |
| 20260509191110 | 26 | 270 | 1.6 | 6.4 | 0.00 | 0.00 | 0.00 | 47 | 1009.4 |
| 20260509190630 | 25 | 197 | 3.2 | 6.4 | 0.00 | 0.00 | 0.00 | 47 | 1009.5 |
| 20260509190109 | 25 | 197 | 3.2 | 6.4 | 0.00 | 0.00 | 0.00 | 47 | 1009.5 |
| 20260509185606 | 25 | 225 | 1.6 | 8.0 | 0.00 | 0.00 | 0.00 | 51 | 1009.6 |
| 20260509185106 | 25 | 225 | 1.6 | 8.0 | 0.00 | 0.00 | 0.00 | 51 | 1009.6 |
| 20260509184607 | 24 | 124 | 1.6 | 8.0 | 0.00 | 0.00 | 0.00 | 52 | 1009.6 |
| 20260509184125 | 24 | 124 | 1.6 | 8.0 | 0.00 | 0.00 | 0.00 | 52 | 1009.6 |
| 20260509183602 | 23 | 60 | 1.6 | 6.4 | 0.00 | 0.00 | 0.00 | 52 | 1009.7 |
| 20260509183100 | 23 | 60 | 1.6 | 6.4 | 0.00 | 0.00 | 0.00 | 52 | 1009.7 |
| 20260509182600 | 24 | 188 | 3.2 | 8.0 | 0.00 | 0.00 | 0.00 | 54 | 1009.9 |
| 20260509182059 | 24 | 188 | 3.2 | 8.0 | 0.00 | 0.00 | 0.00 | 54 | 1009.9 |
| 20260509181600 | 23 | 175 | 6.4 | 12.9 | 0.00 | 0.00 | 0.00 | 55 | 1010.0 |
| 20260509181057 | 23 | 175 | 6.4 | 12.9 | 0.00 | 0.00 | 0.00 | 55 | 1010.0 |
| 20260509180556 | 22 | 163 | 3.2 | 6.4 | 0.00 | 0.00 | 0.00 | 57 | 1010.2 |
| 20260509180057 | 22 | 163 | 3.2 | 6.4 | 0.00 | 0.00 | 0.00 | 57 | 1010.2 |
| 20260509175555 | 22 | 233 | 1.6 | 4.8 | 0.00 | 0.00 | 0.00 | 57 | 1010.3 |
| 20260509175053 | 22 | 233 | 1.6 | 4.8 | 0.00 | 0.00 | 0.00 | 57 | 1010.3 |
| 20260509174551 | 22 | 220 | 1.6 | 6.4 | 0.00 | 0.00 | 0.00 | 57 | 1010.3 |
| 20260509174112 | 22 | 220 | 1.6 | 6.4 | 0.00 | 0.00 | 0.00 | 57 | 1010.3 |
| 20260509173550 | 22 | 57 | 3.2 | 9.7 | 0.00 | 0.00 | 0.00 | 60 | 1010.4 |
| 20260509173051 | 22 | 57 | 3.2 | 9.7 | 0.00 | 0.00 | 0.00 | 60 | 1010.4 |
| 20260509172549 | 21 | 63 | 1.6 | 6.4 | 0.00 | 0.00 | 0.00 | 61 | 1010.5 |
| 20260509172046 | 21 | 63 | 1.6 | 6.4 | 0.00 | 0.00 | 0.00 | 61 | 1010.5 |
| 20260509171546 | 21 | 270 | 1.6 | 1.6 | 0.00 | 0.00 | 0.00 | 62 | 1010.8 |
| 20260509171045 | 21 | 270 | 1.6 | 1.6 | 0.00 | 0.00 | 0.00 | 62 | 1010.8 |
| 20260509170547 | 21 | 270 | 1.6 | 3.2 | 0.00 | 0.00 | 0.00 | 60 | 1010.9 |
| 20260509170104 | 21 | 270 | 1.6 | 3.2 | 0.00 | 0.00 | 0.00 | 60 | 1010.9 |
| 20260509165542 | 21 | 45 | 1.6 | 6.4 | 0.00 | 0.00 | 0.00 | 59 | 1010.9 |
| 20260509165040 | 21 | 45 | 1.6 | 6.4 | 0.00 | 0.00 | 0.00 | 59 | 1010.9 |
| 20260509164540 | 21 | 138 | 3.2 | 6.4 | 0.00 | 0.00 | 0.00 | 62 | 1011.0 |
| 20260509164039 | 21 | 138 | 3.2 | 6.4 | 0.00 | 0.00 | 0.00 | 62 | 1011.0 |
| 20260509163539 | 21 | 196 | 4.8 | 11.3 | 0.00 | 0.00 | 0.00 | 61 | 1011.1 |
| 20260509163037 | 21 | 196 | 4.8 | 11.3 | 0.00 | 0.00 | 0.00 | 61 | 1011.1 |